Tracking 20626 objects as of 8-Apr-2020
HD Live streaming from Space Station
objects crossing your sky now

OSCAR 14 (UOSAT 3)

Track OSCAR 14 (UOSAT 3) now!
10-day predictions
OSCAR 14 (UOSAT 3) is classified as:


NORAD ID: 20437
Int'l Code: 1990-005B
Perigee: 782.8 km
Apogee: 799.3 km
Inclination: 98.8 °
Period: 100.5 minutes
Semi major axis: 7162 km
RCS: 0.3858 m2 (medium)
Launch date: January 22, 1990
Source: United Kingdom (UK)
Launch site: FRENCH GUIANA (FRGUI)

Uplink (MHz): 145.975
Downlink (MHz): 435.070
Beacon (MHz):
Mode: FM
Call sign:
Status: Inactive

aabbcc
Your satellite tracking list
Your tracking list is empty




NASA's NSSDC Master Catalog

Two Line Element Set (TLE):
1 20437U 90005B   20099.53667635 -.00000010 +00000-0 +13360-4 0  9990
2 20437 098.8010 064.7037 0011457 046.2343 075.3946 14.32341071577897
Source of the keplerian elements: AFSPC